Regional Weather Roundup
Issued by NWS Little Rock, AR

Home | Current Version | Previous Version | Graphics & Text | Print | Product List | Glossary On
Versions: 1 2 3 4 5 6 7 8 9 10 11 12 13 14 15 16 17 18 19 20 21 22 23 24 25 26 27 28 29 30 31 32 33 34 35 36 37 38 39 40 41 42 43 44 45 46 47 48 49 50
000
ASUS44 KLZK 090205
RWRLZK

WEATHER ROUNDUP FOR ARKANSAS
NATIONAL WEATHER SERVICE LITTLE ROCK AR
800 PM CST MON FEB 08 2016

NOTE: "FAIR" INDICATES FEW OR NO CLOUDS BELOW 12,000 FEET WITH NO
SIGNIFICANT WEATHER AND/OR OBSTRUCTIONS TO VISIBILITY.

ARZ001-003-010-029-090300-
NORTHWEST ARKANSAS

CITY           SKY/WX    TMP DP  RH WIND       PRES   REMARKS
FAYETTEVILLE   CLEAR     33  15  47 NW12      30.11R WCI  24
FORT SMITH     CLEAR     41  10  28 NW12      30.14R
HARRISON       CLEAR     32  14  47 NW14G25   30.03F WCI  22
BENTONVILLE    CLEAR     34  10  37 NW9       30.11R WCI  26
ROGERS         CLEAR     33  14  45 NW16G24   30.09S WCI  23
SILOAM SPGS    CLEAR     34  10  37 NW20G25   30.13R WCI  22
HIGHFILL       CLEAR     34  15  46 NW14      30.10R WCI  25
SPRINGDALE     CLEAR     34  12  40 NW17G29   30.11S WCI  23
$$

ARZ004-005-016-090300-
NORTH CENTRAL ARKANSAS

CITY           SKY/WX    TMP DP  RH WIND       PRES   REMARKS
BATESVILLE     CLOUDY    37  16  41 W10G21    30.04S
FLIPPIN        CLOUDY   N/A N/A N/A NW25G32   30.02S
MTN HOME       CLOUDY    34  15  46 NW15G23   30.01F WCI  24
$$

ARZ040-041-090300-
WEST CENTRAL ARKANSAS

CITY           SKY/WX    TMP DP  RH WIND       PRES   REMARKS
MENA           PTCLDY    43  12  28 NW17G25   30.11S
MOUNT IDA      CLEAR     42  11  28 NW8       30.06S
$$

ARZ009-017-025-026-028-090300-
NORTHEAST ARKANSAS

CITY           SKY/WX    TMP DP  RH WIND       PRES   REMARKS
CORNING        FAIR      34  23  64 NW17G28   30.01S WCI  23
JONESBORO      CLOUDY    35  20  54 NW14G20   30.00F WCI  26
NEWPORT        CLOUDY    37  18  46 NW16      30.04F
WALNUT RIDGE   CLOUDY    36  18  48 NW24G32   30.02S
BLYTHEVILLE    CLOUDY    36  22  56 NW24G35   30.00S
$$

ARZ022-023-033-042-044-090300-
CENTRAL ARKANSAS

CITY           SKY/WX    TMP DP  RH WIND       PRES   REMARKS
LITTLE ROCK    PTCLDY    40  16  37 NW6       30.08S
N LITTLE ROCK  PTCLDY    37  20  49 NW5       30.08S
JACKSONVILLE   PTCLDY    38  17  41 NW7       30.06S
SEARCY         CLOUDY    39  18  41 NW14      30.07F
HOT SPRINGS    CLEAR     42  16  34 W6        30.08S
RUSSELLVILLE   PTCLDY    40  15  36 NW13G20   30.07F
CLINTON        MOCLDY    37  16  41 NW8       30.06F
$$

ARZ036-090300-
EAST ARKANSAS

CITY           SKY/WX    TMP DP  RH WIND       PRES   REMARKS
WEST MEMPHIS   CLOUDY    37  22  54 NW12G25   30.02S
$$

ARZ050-053-066-070-073-090300-
SOUTHWEST ARKANSAS

CITY           SKY/WX    TMP DP  RH WIND       PRES   REMARKS
ARKADELPHIA    FAIR      43  17  35 W5        30.11R
CAMDEN         CLEAR     41  12  30 CALM      30.12R
TEXARKANA      CLEAR     46  12  25 NW16G22   30.14R
EL DORADO      CLEAR     42  14  32 W5        30.12R
DE QUEEN       CLEAR     44  13  28 NW10      30.14R
$$

ARZ056-057-069-090300-
SOUTHEAST ARKANSAS

CITY           SKY/WX    TMP DP  RH WIND       PRES   REMARKS
PINE BLUFF     CLEAR     40  17  39 NW10      30.08R
STUTTGART      CLOUDY    39  21  48 NW12      30.08R
MONTICELLO     CLEAR     38  19  46 NW3       30.08R

$$





USA.gov is the U.S. government's official web portal to all federal, state and local government web resources and services.